Terug naar catalogus

SL-8 DEB

ActiefLEO
NORAD 21163·DEBRIS·🇷🇺 Russia

Gelanceerd Feb 12, 1991 vanaf Plesetsk Cosmodrome

Loading…

Volgende Passages (komende 24 uur)

TLE

VersSource: Space-Track

Epoch: Sep 14, 2026, 14:44 UTC

1 21163U 91009AA  26257.61456319  .00000028  00000-0  35558-3 0  9998
2 21163  73.9458  10.9983 0138336 259.1229 113.3999 12.30978378595827

Volg SL-8 DEB in realtime met AllMySat

Download on the App Store